Tracking 20241 objects as of 25-Jan-2020
HD Live streaming from Space Station
objects crossing your sky now

COSMOS 2333

Track COSMOS 2333 now!
10-day predictions
COSMOS 2333 is classified as:


NORAD ID: 24297
Int'l Code: 1996-051A
Perigee: 836.5 km
Apogee: 873.8 km
Inclination: 70.9 °
Period: 101.9 minutes
Semi major axis: 7226 km
RCS: 6.069 m2 (large)
Launch date: September 4, 1996
Source: Commonwealth of Independent States (former USSR) (CIS)
Launch site: TYURATAM MISSILE AND SPACE COMPLEX (TTMTR)
aabbcc
Your satellite tracking list
Your tracking list is empty




NASA's NSSDC Master Catalog

Two Line Element Set (TLE):
1 24297U 96051A   20024.57055592 -.00000147 +00000-0 -52519-4 0  9991
2 24297 070.9006 211.3938 0025821 220.1052 139.8164 14.13323950206309
Source of the keplerian elements: AFSPC